1499119200.9,37782,16.88,74010.0,-2.79,-31.33,-34.01,0,*51
1499119202.15,37783,16.88,74006.0,-2.81,-31.33,-34.01,0,*57
1499119203.41,37784,16.88,73994.5,-2.81,-31.11,-33.83,0,*5D
1499119204.67,37785,16.88,73976.8,-2.79,-30.95,-33.77,0,*5D
1499119205.89,37786,16.88,74040.3,-2.79,-31.05,-33.77,0,*56
1499119207.1,37787,16.88,74014.0,-2.79,-31.29,-33.83,0,*52
1499119208.33,37788,16.88,74010.3,-2.79,-31.23,-33.95,0,*50
1499119209.57,37789,16.88,74014.3,-2.79,-31.23,-33.95,0,*51
1499119210.82,37790,16.88,74014.5,-2.81,-31.39,-34.13,0,*5C
1499119212.07,37791,16.88,74008.0,-2.77,-31.51,-34.13,0,*5A
1499119213.33,37792,16.88,74010.0,-2.77,-31.45,-34.19,0,*56
1499119214.55,37793,16.88,74012.3,-2.79,-31.67,-34.31,0,*53
1499119215.81,37794,16.88,74010.8,-2.79,-31.61,-34.35,0,*56
1499119217.07,37795,16.88,74012.3,-2.79,-31.95,-34.53,0,*5C
1499119218.32,37796,16.81,74016.5,-2.79,-31.61,-34.35,0,*54
1499119219.61,37797,16.88,74016.0,-2.81,-31.85,-34.53,0,*58
1499119220.88,37798,16.88,74018.0,-2.81,-31.91,-34.53,0,*52
1499119222.12,37799,16.88,74014.8,-2.79,-31.79,-34.53,0,*52
1499119223.38,37800,16.88,74018.0,-2.81,-31.85,-34.59,0,*53
1499119224.63,37801,16.88,74012.0,-2.79,-31.85,-34.31,0,*5B
1499119225.85,37802,16.88,74014.8,-2.81,-31.67,-34.41,0,*54
1499119227.08,37803,16.81,74002.5,-2.83,-31.95,-34.59,0,*53
1499119228.33,37804,16.88,74008.0,-2.81,-31.67,-34.35,0,*51
1499119229.55,37805,16.88,74012.0,-2.83,-31.61,-34.41,0,*57
1499119230.83,37806,16.88,74012.8,-2.81,-31.57,-34.35,0,*50
1499119232.08,37807,16.88,74010.8,-2.81,-31.29,-33.89,0,*58
1499119233.32,37808,16.88,74012.5,-2.81,-31.67,-34.35,0,*5D
1499119234.55,37809,16.81,74014.5,-2.83,-31.91,-34.59,0,*5D
1499119235.79,37810,16.88,74012.3,-2.83,-31.73,-34.47,0,*56
1499119237.05,37811,16.88,74008.8,-2.85,-31.91,-34.47,0,*5D
1499119238.27,37812,16.81,74006.3,-2.83,-31.73,-34.41,0,*52
1499119239.5,37813,16.88,74018.8,-2.83,-31.73,-34.41,0,*53
1499119240.73,37814,16.81,74000.5,-2.85,-31.33,-34.07,0,*54
1499119241.94,37815,16.88,74006.5,-2.83,-31.45,-34.07,0,*52
1499119243.16,37816,16.88,74002.0,-2.83,-31.39,-34.13,0,*5F
1499119244.37,37817,16.88,74010.3,-2.83,-31.45,-34.13,0,*55
1499119245.63,37818,16.88,74018.3,-2.85,-31.57,-34.25,0,*5A
1499119246.85,37819,16.88,74010.8,-2.83,-31.39,-34.07,0,*55
1499119248.06,37820,16.88,74018.8,-2.83,-31.45,-34.13,0,*51
1499119249.27,37821,16.88,74012.0,-2.83,-31.45,-34.13,0,*50
1499119250.54,37822,16.81,74022.5,-2.81,-31.57,-34.19,0,*58
1499119251.81,37823,16.88,74012.8,-2.81,-31.57,-34.35,0,*57
1499119253.06,37824,16.88,74020.3,-2.81,-31.67,-34.35,0,*53
1499119254.31,37825,16.81,74022.3,-2.83,-31.73,-34.31,0,*51
1499119255.52,37826,16.88,74018.3,-2.83,-31.45,-34.07,0,*52
1499119256.74,37827,16.88,74006.5,-2.83,-31.39,-34.07,0,*58
1499119257.95,37828,16.88,74008.8,-2.83,-31.79,-34.47,0,*57
1499119259.21,37829,16.81,74006.0,-2.85,-31.61,-34.25,0,*5D
1499119260.43,37830,16.81,74016.8,-2.83,-31.39,-34.07,0,*5E
1499119261.66,37831,16.88,74020.0,-2.83,-31.39,-34.07,0,*5F
1499119262.88,37832,16.81,74016.5,-2.81,-31.29,-33.83,0,*54
1499119264.16,37833,16.81,74012.3,-2.81,-31.39,-34.01,0,*59
1499119265.42,37834,16.81,74012.5,-2.81,-31.33,-34.01,0,*54
1499119266.64,37835,16.88,74014.8,-2.83,-31.61,-34.25,0,*56
1499119267.92,37836,16.81,74014.3,-2.81,-31.57,-34.35,0,*53
1499119269.19,37837,16.81,74016.0,-2.81,-31.57,-34.19,0,*5C
1499119270.44,37838,16.88,74024.3,-2.81,-31.57,-34.25,0,*5C
1499119271.66,37839,16.88,74010.8,-2.83,-31.57,-34.25,0,*5F
1499119272.89,37840,16.88,74002.3,-2.83,-31.39,-34.07,0,*59
1499119274.14,37841,16.81,74006.3,-2.81,-31.85,-34.41,0,*5F
1499119275.39,37842,16.81,74006.0,-2.81,-31.29,-33.89,0,*59
1499119276.64,37843,16.88,74016.5,-2.81,-31.39,-34.07,0,*58
1499119277.89,37844,16.81,74008.3,-2.81,-31.57,-34.25,0,*57
1499119279.13,37845,16.81,74008.0,-2.81,-31.67,-34.35,0,*54
1499119280.34,37846,16.81,74014.5,-2.83,-31.45,-34.13,0,*51
1499119281.54,37847,16.88,74016.5,-2.83,-31.45,-34.07,0,*55
1499119282.77,37848,16.88,74022.5,-2.81,-31.29,-33.83,0,*59
1499119284.02,37849,16.88,74012.3,-2.83,-31.73,-34.31,0,*5B
1499119285.23,37850,16.81,74018.5,-2.83,-31.45,-33.95,0,*5F
1499119286.45,37851,16.88,74030.8,-2.83,-31.57,-34.25,0,*51
1499119287.7,37852,16.88,74020.0,-2.81,-31.17,-33.73,0,*50
1499119288.96,37853,16.88,74022.0,-2.81,-31.29,-33.89,0,*59
1499119290.21,37854,16.81,74022.8,-2.83,-31.73,-34.31,0,*57
1499119291.45,37855,16.81,74026.8,-2.81,-31.57,-34.25,0,*57
1499119292.68,37856,16.81,74034.0,-2.83,-31.79,-34.31,0,*5F
1499119293.93,37857,16.81,74026.8,-2.83,-31.61,-34.31,0,*57
1499119295.19,37858,16.81,74026.8,-2.85,-31.91,-34.41,0,*56
1499119296.41,37859,16.88,74030.0,-2.83,-31.57,-34.07,0,*59
1499119297.7,37860,16.81,74026.5,-2.85,-31.39,-33.89,0,*5C
1499119298.9,37861,16.81,74026.8,-2.83,-31.45,-33.95,0,*5D
1499119300.13,37862,16.81,74026.8,-2.83,-31.05,-33.77,0,*56
1499119301.35,37863,16.88,74026.8,-2.83,-31.39,-34.13,0,*5D
1499119302.58,37864,16.81,74020.8,-2.83,-31.79,-34.31,0,*5E
1499119303.79,37865,16.88,74020.3,-2.83,-31.79,-34.47,0,*5E
1499119305.02,37866,16.81,74028.3,-2.83,-31.95,-34.59,0,*50
1499119306.24,37867,16.88,74024.5,-2.83,-31.57,-34.25,0,*54
1499119307.47,37868,16.88,74018.3,-2.83,-31.57,-34.13,0,*5E
1499119308.73,37869,16.81,74026.0,-2.83,-31.73,-34.31,0,*59
1499119309.98,37870,16.81,74008.5,-2.83,-31.57,-34.31,0,*57
1499119311.21,37871,16.81,74020.5,-2.83,-31.57,-34.13,0,*56
1499119312.44,37872,16.81,74008.5,-2.83,-31.57,-34.07,0,*50
1499119313.66,37873,16.81,74006.5,-2.83,-31.61,-34.25,0,*54
1499119314.89,37874,16.81,74024.5,-2.83,-31.17,-33.77,0,*52
1499119316.1,37875,16.81,74026.3,-2.83,-31.45,-34.07,0,*54
1499119317.32,37876,16.81,74032.5,-2.83,-31.61,-34.25,0,*51
1499119318.55,37877,16.81,74024.3,-2.83,-31.57,-34.13,0,*50
1499119319.76,37878,16.81,74030.5,-2.83,-31.45,-34.07,0,*59
1499119321.01,37879,16.81,74034.8,-2.85,-31.57,-34.25,0,*5D
1499119322.24,37880,16.88,74030.3,-2.83,-31.73,-34.25,0,*5B
1499119323.45,37881,16.81,74020.3,-2.83,-31.45,-34.07,0,*5F
1499119324.65,37882,16.81,74016.0,-2.83,-31.45,-34.13,0,*59
1499119325.89,37883,16.81,74028.0,-2.85,-31.45,-34.07,0,*5B
1499119327.1,37884,16.81,74022.3,-2.83,-31.45,-34.07,0,*5A
1499119328.33,37885,16.81,74020.8,-2.85,-31.45,-34.13,0,*58
1499119329.59,37886,16.81,74030.0,-2.85,-31.39,-34.07,0,*55
1499119330.79,37887,16.81,74038.3,-2.83,-31.45,-33.95,0,*55
1499119332.05,37888,16.81,74038.3,-2.85,-31.57,-34.25,0,*53
1499119333.27,37889,16.81,74034.0,-2.83,-31.57,-34.25,0,*54
1499119334.53,37890,16.81,74032.0,-2.85,-31.39,-33.95,0,*5E
1499119335.75,37891,16.81,74024.0,-2.83,-31.39,-34.07,0,*55
1499119336.96,37892,16.81,74026.0,-2.83,-31.45,-34.07,0,*5D
1499119338.19,37893,16.81,74018.5,-2.83,-31.33,-33.77,0,*5D
1499119339.44,37894,16.81,74020.5,-2.85,-31.39,-34.13,0,*53
1499119340.67,37895,16.81,74034.8,-2.83,-31.57,-34.25,0,*59
1499119341.9,37896,16.81,74022.0,-2.83,-31.17,-33.77,0,*5E
1499119343.15,37897,16.81,74026.3,-2.85,-31.33,-33.89,0,*5E
1499119344.4,37898,16.81,74030.5,-2.81,-31.33,-33.89,0,*55
1499119345.63,37899,16.81,74016.3,-2.83,-31.33,-33.89,0,*56
1499119346.92,37900,16.81,74032.8,-2.85,-31.23,-33.77,0,*51
1499119348.17,37901,16.81,74032.5,-2.81,-31.33,-33.89,0,*54
1499119349.4,37902,16.81,74020.3,-2.83,-31.05,-33.89,0,*50
1499119350.6,37903,16.81,74026.5,-2.83,-31.33,-34.13,0,*50
1499119351.8,37904,16.81,74036.8,-2.83,-31.45,-34.25,0,*53
1499119353.03,37905,16.81,74024.0,-2.83,-31.33,-33.89,0,*52
1499119354.23,37906,16.81,74038.8,-2.83,-31.17,-33.67,0,*57
1499119355.46,37907,16.81,74042.8,-2.83,-31.39,-33.95,0,*57
1499119356.67,37908,16.81,74046.8,-2.83,-31.45,-34.13,0,*5A
1499119357.92,37909,16.81,74034.0,-2.83,-31.57,-34.31,0,*58
1499119359.15,37910,16.81,74026.8,-2.85,-31.45,-34.13,0,*55
1499119360.36,37911,16.81,74042.3,-2.83,-31.45,-34.13,0,*52
1499119361.59,37912,16.81,74036.0,-2.83,-31.57,-34.13,0,*52
1499119362.82,37913,16.81,74012.8,-2.83,-30.33,-32.45,0,*55
1499119364.08,37914,16.81,74008.0,-2.85,-26.87,-27.23,0,*58
1499119365.34,37915,16.81,73992.3,-2.83,-24.41,-30.01,0,*51
1499119366.55,37916,16.81,74012.0,-2.83,-28.97,-33.37,0,*53
1499119367.81,37917,16.81,74004.3,-2.85,-30.67,-33.77,0,*56
1499119369.04,37918,16.81,74016.3,-2.83,-30.89,-33.67,0,*5E
1499119370.26,37919,16.81,74024.8,-2.83,-31.01,-33.49,0,*52
1499119371.49,37920,16.81,74020.3,-2.83,-31.17,-33.77,0,*52
1499119372.72,37921,16.81,74024.3,-2.81,-31.29,-33.83,0,*57
1499119373.99,37922,16.81,74028.8,-2.81,-30.95,-33.61,0,*5E
1499119375.21,37923,16.81,74030.8,-2.81,-31.01,-33.83,0,*5F
1499119376.42,37924,16.81,74030.0,-2.79,-31.05,-33.83,0,*5B
1499119377.67,37925,16.81,74038.3,-2.81,-31.29,-33.89,0,*59
1499119378.92,37926,16.81,74020.3,-2.81,-31.17,-33.73,0,*52
1499119380.15,37927,16.81,74038.0,-2.79,-30.89,-33.55,0,*56
1499119381.4,37928,16.81,74044.3,-2.81,-31.17,-33.73,0,*5C
1499119382.64,37929,16.81,74032.8,-2.79,-30.77,-33.37,0,*5D
1499119383.89,37930,16.81,74024.5,-2.79,-30.55,-33.09,0,*58
1499119385.13,37931,16.81,74028.3,-2.79,-30.95,-33.67,0,*5D
1499119386.33,37932,16.81,74030.3,-2.79,-31.05,-33.83,0,*5C
1499119387.56,37933,16.81,74008.8,-2.79,-30.95,-33.55,0,*5E
1499119388.82,37934,16.81,74004.3,-2.79,-30.95,-33.77,0,*59
1499119390.05,37935,16.81,73992.3,-2.79,-31.23,-33.83,0,*5F
1499119391.26,37936,16.81,74018.3,-2.79,-31.29,-33.95,0,*51
1499119392.46,37937,16.81,74024.5,-2.79,-31.05,-33.83,0,*59
1499119393.69,37938,16.81,74000.8,-2.79,-30.95,-33.55,0,*55
1499119394.92,37939,16.81,74006.3,-2.77,-31.05,-33.55,0,*52
1499119396.2,37940,16.81,73984.0,-2.77,-31.11,-33.77,0,*59
1499119397.49,37941,16.81,73990.0,-2.77,-30.95,-33.43,0,*52
1499119398.72,37942,16.81,73988.3,-2.77,-31.05,-33.67,0,*5F
1499119399.98,37943,16.81,74014.5,-2.77,-31.33,-33.77,0,*5A
1499119401.18,37944,16.81,74014.5,-2.79,-31.29,-33.55,0,*58
1499119402.42,37945,16.81,74002.3,-2.79,-31.29,-33.27,0,*5C
1499119403.66,37946,16.81,74014.8,-2.79,-30.73,-32.69,0,*5A
1499119404.96,37947,16.81,74010.8,-2.75,-29.35,-30.01,0,*51
1499119406.16,37948,16.81,74008.5,-2.79,-26.49,-26.45,0,*51
1499119407.42,37949,16.81,74010.5,-2.79,-23.85,-22.77,0,*50
1499119408.68,37950,16.81,74020.8,-2.77,-24.83,-27.93,0,*58
1499119409.94,37951,16.81,74002.8,-2.79,-26.81,-29.39,0,*59
1499119411.21,37952,16.81,73984.5,-2.79,-26.81,-28.63,0,*54
1499119412.45,37953,16.81,73984.3,-2.79,-25.81,-29.83,0,*59
1499119413.68,37954,16.81,74026.3,-2.79,-27.03,-30.55,0,*55
1499119414.97,37955,16.81,74010.3,-2.75,-27.39,-30.89,0,*50
1499119416.24,37956,16.81,74018.5,-2.75,-27.89,-31.95,0,*54
1499119417.53,37957,16.81,74020.8,-2.75,-29.01,-33.49,0,*58
1499119418.79,37958,16.81,74024.5,-2.75,-30.73,-34.13,0,*52
1499119420.04,37959,16.81,74024.3,-2.77,-30.89,-33.95,0,*5D
1499119421.3,37960,16.81,74028.8,-2.75,-31.23,-34.13,0,*5D
1499119422.59,37961,16.81,74024.3,-2.77,-31.11,-33.77,0,*5A
1499119423.88,37962,16.81,74018.8,-2.75,-29.35,-31.95,0,*5A
1499119425.11,37963,16.81,74020.3,-2.77,-28.97,-32.01,0,*5E
1499119426.37,37964,16.81,74022.5,-2.77,-30.23,-32.75,0,*5C
1499119427.62,37965,16.81,74016.8,-2.77,-30.55,-33.55,0,*5F
1499119428.9,37966,16.81,74008.8,-2.77,-30.89,-33.77,0,*5D
1499119430.16,37967,16.81,74006.5,-2.75,-31.23,-33.95,0,*53
1499119431.39,37968,16.81,74004.0,-2.77,-31.29,-34.13,0,*5D
1499119432.67,37969,16.81,74010.5,-2.77,-31.61,-34.31,0,*50
1499119433.93,37970,16.81,74002.5,-2.75,-31.05,-33.89,0,*5C
1499119435.22,37971,16.81,74008.5,-2.75,-31.23,-33.77,0,*58
1499119436.49,37972,16.81,74010.8,-2.77,-31.51,-34.31,0,*59
1499119437.72,37973,16.81,74022.3,-2.75,-31.45,-34.25,0,*5A
1499119438.96,37974,16.81,74018.0,-2.75,-31.29,-33.95,0,*5B
1499119440.24,37975,16.81,74016.0,-2.77,-31.61,-34.19,0,*57
1499119441.47,37976,16.81,74006.5,-2.77,-31.45,-34.13,0,*58
1499119442.73,37977,16.81,74018.5,-2.75,-31.23,-33.95,0,*52
1499119443.99,37978,16.81,74008.0,-2.77,-31.23,-33.83,0,*58
1499119445.26,37979,16.81,74014.0,-2.77,-31.51,-34.35,0,*56
1499119446.5,37980,16.81,74012.8,-2.77,-31.79,-34.47,0,*5F
1499119447.74,37981,16.81,74016.8,-2.77,-31.67,-34.35,0,*54
1499119449.0,37982,16.81,74020.0,-2.77,-31.67,-34.53,0,*57
1499119450.25,37983,16.81,74020.5,-2.77,-31.79,-34.35,0,*59
1499119451.53,37984,16.81,74020.0,-2.77,-31.61,-34.35,0,*57
1499119452.81,37985,16.81,74018.8,-2.77,-31.61,-34.35,0,*56
1499119454.07,37986,16.81,74026.5,-2.77,-31.61,-34.47,0,*50
1499119455.33,37987,16.81,74022.5,-2.79,-31.85,-34.53,0,*50
1499119456.57,37988,16.81,74020.3,-2.79,-31.85,-34.47,0,*5A
1499119457.79,37989,16.81,74016.8,-2.79,-31.67,-34.35,0,*52
1499119459.01,37990,16.81,74012.8,-2.79,-31.79,-34.47,0,*50
1499119460.26,37991,16.81,74014.0,-2.81,-31.85,-34.59,0,*5A
1499119461.52,37992,16.81,74014.0,-2.81,-31.85,-34.59,0,*59
1499119462.74,37993,16.81,74012.8,-2.79,-31.79,-34.35,0,*56
1499119463.99,37994,16.81,74014.0,-2.81,-31.57,-34.25,0,*5B
1499119465.21,37995,16.81,74014.3,-2.81,-31.67,-34.41,0,*5B
1499119466.44,37996,16.81,74008.8,-2.79,-31.33,-33.77,0,*5C
1499119467.72,37997,16.81,74008.3,-2.81,-31.51,-33.27,0,*5B
1499119469.01,37998,16.81,74016.5,-2.81,-31.73,-33.09,0,*58
1499119470.26,37999,16.81,74010.5,-2.81,-31.33,-32.19,0,*5D
1499119471.52,38000,16.81,74006.3,-2.81,-30.83,-31.51,0,*5E
1499119472.78,38001,16.81,74008.0,-2.81,-30.61,-30.67,0,*57
1499119474.06,38002,16.81,74010.5,-2.81,-30.61,-30.61,0,*52
1499119475.3,38003,16.81,74014.0,-2.79,-30.01,-31.45,0,*55
1499119476.55,38004,16.81,74010.5,-2.81,-29.73,-32.39,0,*50
1499119477.83,38005,16.81,74014.0,-2.81,-29.13,-31.73,0,*5A
1499119479.08,38006,16.81,74014.8,-2.81,-30.33,-33.73,0,*51
1499119480.33,38007,16.81,74008.8,-2.81,-31.17,-33.73,0,*57
1499119481.6,38008,16.81,73996.3,-2.81,-31.51,-33.89,0,*5F
1499119482.83,38009,16.81,74052.0,-2.81,-31.33,-33.83,0,*50
1499119484.08,38010,16.81,74038.3,-2.81,-31.01,-33.43,0,*55
1499119485.33,38011,16.81,73986.0,-2.81,-31.17,-33.49,0,*59
1499119486.59,38012,16.81,73984.3,-2.81,-31.17,-33.49,0,*5A
1499119487.87,38013,16.81,74006.8,-2.81,-31.11,-33.43,0,*57
1499119489.11,38014,16.81,73980.5,-2.79,-30.89,-33.03,0,*53
1499119490.37,38015,16.81,73990.0,-2.79,-30.77,-32.75,0,*53
1499119491.61,38016,16.75,73976.8,-2.79,-30.77,-33.03,0,*50
1499119492.84,38017,16.81,74002.5,-2.79,-30.89,-33.21,0,*50
1499119494.07,38018,16.81,74014.0,-2.79,-30.95,-33.55,0,*51
1499119495.32,38019,16.75,74000.8,-2.81,-31.01,-33.61,0,*5C
1499119496.55,38020,16.81,74010.0,-2.79,-30.95,-33.67,0,*5B
1499119497.79,38021,16.81,74008.5,-2.79,-31.23,-33.83,0,*5C
1499119499.01,38022,16.81,74014.8,-2.77,-31.29,-33.95,0,*5C
1499119500.25,38023,16.81,74022.5,-2.79,-31.23,-33.83,0,*5E
1499119501.47,38024,16.81,74020.0,-2.81,-31.33,-33.83,0,*5F
1499119502.68,38025,16.81,74028.0,-2.79,-31.33,-33.55,0,*52
1499119503.94,38026,16.81,74024.8,-2.79,-31.23,-33.09,0,*59
1499119505.15,38027,16.81,74020.8,-2.79,-31.29,-32.91,0,*52
1499119506.41,38028,16.81,74008.0,-2.81,-31.17,-32.75,0,*5D
1499119507.64,38029,16.81,74016.5,-2.81,-31.17,-32.39,0,*54
1499119508.91,38030,16.81,74010.0,-2.79,-30.73,-30.61,0,*57
1499119510.13,38031,16.81,74014.0,-2.79,-30.23,-29.17,0,*5A
1499119511.42,38032,16.81,74004.5,-2.77,-28.05,-28.05,0,*58
1499119512.68,38033,16.81,74012.3,-2.79,-25.97,-28.47,0,*57
1499119513.91,38034,16.81,74022.5,-2.77,-26.49,-27.51,0,*56
1499119515.2,38035,16.81,74004.5,-2.77,-25.97,-26.81,0,*5B
1499119516.47,38036,16.81,74012.3,-2.77,-24.21,-27.29,0,*57
1499119517.7,38037,16.81,74020.5,-2.79,-24.87,-30.45,0,*58
1499119518.96,38038,16.81,74016.0,-2.77,-26.77,-30.45,0,*54
1499119520.2,38039,16.81,74026.5,-2.79,-28.05,-29.57,0,*5B
1499119521.43,38040,16.81,74026.8,-2.79,-27.99,-29.23,0,*5C
1499119522.67,38041,16.75,74020.0,-2.79,-28.97,-31.95,0,*58
1499119523.9,38042,16.81,74012.0,-2.79,-29.51,-32.57,0,*5D
1499119525.16,38043,16.81,74006.3,-2.77,-30.05,-32.91,0,*51
1499119526.39,38044,16.81,74014.3,-2.79,-30.89,-32.91,0,*5C
1499119527.66,38045,16.81,74014.8,-2.77,-31.11,-32.69,0,*54
1499119528.92,38046,16.81,74020.8,-2.77,-30.73,-32.69,0,*52
1499119530.18,38047,16.81,74026.0,-2.77,-29.83,-31.85,0,*55
1499119531.48,38048,16.81,74022.5,-2.77,-27.61,-30.61,0,*53
1499119532.73,38049,16.81,74016.0,-2.79,-28.47,-29.51,0,*5C
1499119533.96,38050,16.81,74006.8,-2.77,-26.87,-25.19,0,*58
1499119535.19,38051,16.81,73992.3,-2.79,-25.03,-25.87,0,*5F
1499119536.45,38052,16.81,73978.0,-2.77,-25.03,-24.31,0,*5E
1499119537.68,38053,16.81,73972.5,-2.77,-22.93,-22.87,0,*5A
1499119538.93,38054,16.81,74000.8,-2.77,-23.39,-23.53,0,*54
1499119540.21,38055,16.81,73988.5,-2.77,-23.19,-23.99,0,*51
1499119541.47,38056,16.81,73998.5,-2.77,-25.19,-24.21,0,*50
1499119542.7,38057,16.75,74004.8,-2.77,-22.57,-24.97,0,*51
1499119543.95,38058,16.81,74010.5,-2.77,-24.97,-30.55,0,*5F
1499119545.2,38059,16.81,74018.3,-2.77,-30.05,-33.95,0,*5F
1499119546.44,38060,16.81,74020.3,-2.75,-30.83,-33.15,0,*51
1499119547.65,38061,16.81,74020.5,-2.79,-29.07,-31.05,0,*5B
1499119548.89,38062,16.81,74020.8,-2.77,-30.11,-33.37,0,*5A
1499119550.11,38063,16.81,74022.5,-2.77,-31.05,-33.95,0,*57
1499119551.34,38064,16.81,74020.8,-2.77,-31.29,-33.83,0,*59
1499119552.6,38065,16.81,74022.5,-2.77,-31.29,-33.27,0,*56
1499119553.89,38066,16.81,74024.0,-2.77,-31.23,-34.01,0,*5C
1499119555.17,38067,16.75,74022.3,-2.77,-30.73,-32.85,0,*53
1499119556.45,38068,16.81,74032.5,-2.81,-30.77,-32.19,0,*54
1499119557.69,38069,16.81,74032.8,-2.79,-30.73,-30.45,0,*5D
1499119558.96,38070,16.75,74000.0,-2.79,-29.89,-31.61,0,*5F
1499119560.17,38071,16.81,74024.0,-2.79,-26.61,-29.67,0,*58
1499119561.42,38072,16.81,74010.8,-2.81,-29.13,-33.15,0,*58
1499119562.62,38073,16.81,74014.8,-2.79,-30.45,-33.83,0,*5A
1499119563.84,38074,16.75,74012.8,-2.79,-31.33,-34.31,0,*53
1499119565.08,38075,16.81,74018.0,-2.79,-30.23,-33.43,0,*50
1499119566.31,38076,16.81,74022.8,-2.79,-30.39,-32.51,0,*5A
1499119567.56,38077,16.81,74018.8,-2.81,-30.61,-30.45,0,*56
1499119568.83,38078,16.75,74006.3,-2.79,-29.39,-24.87,0,*50
1499119570.07,38079,16.81,74000.8,-2.77,-24.51,-19.95,0,*51
1499119571.29,38080,16.81,73998.8,-2.81,-19.07,-16.45,0,*51
1499119572.53,38081,16.81,73992.5,-2.79,-16.45,-17.03,0,*5D
1499119573.79,38082,16.75,73992.8,-2.81,-18.17,-20.53,0,*51
1499119575.0,38083,16.81,74016.5,-2.79,-17.35,-19.75,0,*56
1499119576.24,38084,16.81,74012.3,-2.77,-19.13,-23.75,0,*5C
1499119577.49,38085,16.81,74008.8,-2.77,-19.81,-23.75,0,*56
1499119578.72,38086,16.75,74020.3,-2.77,-19.91,-23.39,0,*5C
1499119580.0,38087,16.75,74006.0,-2.75,-21.27,-24.41,0,*51
1499119581.24,38088,16.81,74028.3,-2.77,-21.47,-24.05,0,*5A
1499119582.49,38089,16.81,74000.5,-2.77,-23.49,-28.53,0,*58
1499119583.74,38090,16.75,74012.0,-2.75,-26.45,-30.67,0,*55
1499119585.0,38091,16.75,74018.3,-2.75,-27.93,-31.23,0,*5F
1499119586.27,38092,16.81,74032.3,-2.77,-29.39,-30.27,0,*55
1499119587.56,38093,16.75,74026.0,-2.77,-28.63,-30.73,0,*5B
1499119588.82,38094,16.81,74026.3,-2.77,-25.97,-28.31,0,*55
1499119590.08,38095,16.81,74020.5,-2.77,-24.87,-26.61,0,*5F
1499119591.35,38096,16.81,74012.3,-2.75,-24.41,-25.13,0,*52
1499119592.61,38097,16.81,74014.0,-2.77,-20.89,-22.21,0,*57
1499119593.89,38098,16.81,74022.3,-2.75,-21.27,-23.33,0,*5D
1499119595.16,38099,16.75,74016.3,-2.75,-20.99,-24.47,0,*5C
1499119596.42,38100,16.81,74016.5,-2.77,-24.15,-28.31,0,*52
1499119597.68,38101,16.81,74012.0,-2.75,-23.99,-25.23,0,*5C
1499119598.91,38102,16.81,74002.5,-2.77,-22.53,-21.63,0,*5A
1499119600.2,38103,16.81,74018.0,-2.77,-20.99,-23.23,0,*59
1499119601.44,38104,16.81,74002.5,-2.75,-23.59,-25.91,0,*5C
1499119602.72,38105,16.81,74016.5,-2.75,-23.49,-26.71,0,*51
1499119604.01,38106,16.81,74016.5,-2.75,-25.81,-30.55,0,*51
1499119605.29,38107,16.81,74022.8,-2.75,-28.43,-31.73,0,*56
1499119606.56,38108,16.75,74022.5,-2.75,-29.45,-32.85,0,*54
1499119607.82,38109,16.81,74030.8,-2.75,-30.83,-33.89,0,*5A
1499119609.1,38110,16.81,74030.8,-2.75,-30.05,-32.63,0,*59
1499119610.34,38111,16.81,74026.3,-2.73,-29.45,-32.45,0,*56
1499119611.61,38112,16.81,74022.8,-2.75,-29.61,-32.07,0,*53
1499119612.87,38113,16.81,74020.5,-2.75,-27.29,-30.05,0,*50
1499119614.11,38114,16.81,74012.3,-2.75,-27.55,-29.95,0,*5D
1499119615.37,38115,16.75,74014.8,-2.77,-28.15,-30.61,0,*56
1499119616.66,38116,16.81,74014.8,-2.75,-28.43,-30.17,0,*55
1499119617.96,38117,16.81,74016.0,-2.75,-28.25,-30.17,0,*54
1499119619.22,38118,16.81,74008.8,-2.75,-27.55,-29.35,0,*5B
1499119620.5,38119,16.81,74014.0,-2.75,-25.29,-28.43,0,*53
1499119621.77,38120,16.81,73998.5,-2.69,-26.77,-28.05,0,*5E
1499119623.0,38121,16.81,74006.5,-2.73,-23.85,-27.93,0,*5C
1499119624.24,38122,16.81,74010.3,-2.69,-26.93,-31.01,0,*5A
1499119625.45,38123,16.81,74006.5,-2.73,-30.23,-33.03,0,*5C
1499119626.71,38124,16.81,74014.5,-2.73,-25.55,-26.13,0,*5B
1499119627.95,38125,16.75,74014.5,-2.73,-20.43,-23.49,0,*52
1499119629.18,38126,16.81,74008.8,-2.73,-23.49,-28.31,0,*5C
1499119630.44,38127,16.81,74010.3,-2.73,-28.59,-32.79,0,*50
1499119631.71,38128,16.81,74012.5,-2.75,-30.51,-33.37,0,*53
1499119632.96,38129,16.81,74020.0,-2.75,-31.01,-33.77,0,*52
1499119634.2,38130,16.81,74024.3,-2.69,-30.83,-33.09,0,*55
1499119635.44,38131,16.81,74020.5,-2.73,-30.23,-31.23,0,*5F
1499119636.69,38132,16.81,74014.8,-2.73,-27.45,-26.55,0,*5D
1499119637.94,38133,16.81,73976.8,-2.69,-25.71,-27.03,0,*50
1499119639.17,38134,16.75,73976.5,-2.73,-25.91,-28.91,0,*56
1499119640.4,38135,16.81,74008.5,-2.73,-26.55,-31.01,0,*5D
1499119641.61,38136,16.81,74008.8,-2.73,-29.61,-33.21,0,*56
1499119642.84,38137,16.81,74010.3,-2.73,-30.17,-33.21,0,*5E
1499119644.09,38138,16.81,73998.8,-2.73,-30.89,-33.49,0,*58
1499119645.33,38139,16.75,74002.3,-2.73,-31.29,-33.89,0,*5E
1499119646.59,38140,16.81,73998.0,-2.73,-31.23,-33.73,0,*5F
1499119647.82,38141,16.81,73990.0,-2.73,-31.17,-33.73,0,*59
1499119649.08,38142,16.75,74004.8,-2.75,-30.67,-32.97,0,*51
1499119650.34,38143,16.81,74014.3,-2.75,-31.17,-33.73,0,*5D
1499119651.6,38144,16.75,74006.5,-2.75,-31.17,-33.31,0,*5C
1499119652.89,38145,16.81,74006.0,-2.77,-31.23,-32.19,0,*53
1499119654.14,38146,16.81,73994.0,-2.75,-30.83,-30.83,0,*58
1499119655.42,38147,16.81,73994.3,-2.75,-30.51,-28.59,0,*58
1499119656.71,38148,16.81,74000.0,-2.75,-27.45,-25.55,0,*55
1499119657.99,38149,16.81,73988.0,-2.75,-28.47,-24.67,0,*59
1499119659.25,38150,16.81,73990.8,-2.75,-27.99,-20.69,0,*57
1499119660.49,38151,16.81,73978.8,-2.75,-24.77,-16.37,0,*5B
1499119661.74,38152,16.81,73998.8,-2.75,-20.29,-17.17,0,*54
1499119662.97,38153,16.75,73998.5,-2.73,-17.59,-21.13,0,*51
1499119664.18,38154,16.75,73988.5,-2.73,-20.93,-27.55,0,*50
1499119665.4,38155,16.75,73998.0,-2.73,-25.45,-28.97,0,*5E
1499119666.69,38156,16.75,73996.3,-2.75,-27.61,-30.55,0,*58
1499119667.98,38157,16.81,74000.5,-2.75,-28.91,-29.17,0,*57
1499119669.21,38158,16.81,74014.8,-2.73,-27.61,-29.79,0,*56
1499119670.46,38159,16.75,74004.5,-2.73,-27.45,-29.13,0,*5D
1499119671.74,38160,16.81,74012.8,-2.75,-26.55,-29.13,0,*51
1499119672.97,38161,16.81,74014.0,-2.73,-28.43,-29.79,0,*53
1499119674.18,38162,16.81,74002.3,-2.69,-27.71,-27.13,0,*57
1499119675.42,38163,16.81,74008.8,-2.73,-24.67,-25.61,0,*5E
1499119676.64,38164,16.75,74000.3,-2.73,-24.93,-25.45,0,*54
1499119677.87,38165,16.81,74006.8,-2.69,-22.63,-24.11,0,*57
1499119679.13,38166,16.81,74024.5,-2.73,-25.55,-28.25,0,*56
1499119680.39,38167,16.81,74022.3,-2.73,-26.93,-30.51,0,*54
1499119681.6,38168,16.81,74018.8,-2.73,-29.61,-33.03,0,*5D
1499119682.81,38169,16.75,74018.0,-2.73,-30.67,-33.67,0,*50
1499119684.04,38170,16.81,74020.3,-2.73,-31.01,-33.73,0,*5C
1499119685.27,38171,16.75,74014.5,-2.73,-31.01,-33.73,0,*5D
1499119686.48,38172,16.75,74012.8,-2.73,-30.83,-32.69,0,*5F
1499119687.74,38173,16.75,74008.3,-2.69,-30.61,-32.07,0,*51
1499119689.0,38174,16.75,74012.8,-2.73,-30.51,-31.61,0,*5D
1499119690.23,38175,16.75,74010.8,-2.73,-30.55,-30.83,0,*55
1499119691.43,38176,16.81,74014.3,-2.73,-30.33,-29.79,0,*5B
1499119692.7,38177,16.75,74004.8,-2.75,-29.45,-29.35,0,*5D
1499119693.98,38178,16.75,73996.8,-2.75,-28.47,-30.05,0,*5A
1499119695.24,38179,16.75,74020.0,-2.75,-29.61,-30.55,0,*5B
1499119696.45,38180,16.75,74026.8,-2.73,-30.23,-31.17,0,*52
1499119697.73,38181,16.75,74024.5,-2.75,-30.55,-31.95,0,*5E